Regional Weather Roundup
Issued by NWS Newport/Morehead, NC

Current Version | Previous Version | Graphics & Text | Print | Product List | Glossary On
Versions: 1 2 3 4 5 6 7 8 9 10 11 12 13 14 15 16 17 18 19 20 21 22 23 24 25 26 27 28 29 30 31 32 33 34 35 36 37 38 39 40 41 42 43 44 45 46 47 48 49 50
000 ASUS42 KMHX 220822 RWRMHX WEATHER ROUNDUP FOR EASTERN NORTH CAROLINA NATIONAL WEATHER SERVICE NEWPORT/MOREHEAD CITY NC 400 AM EDT MON SEP 22 2014 NOTE: "FAIR" INDICATES FEW OR NO CLOUDS BELOW 12,000 FEET WITH NO SIGNIFICANT WEATHER AND/OR OBSTRUCTIONS TO VISIBILITY NCZ015>017-031-032-045>047-102-103-220900- NORTH COAST CITY SKY/WX TMP DP RH WIND PRES REMARKS EDENTON CLOUDY 72 68 87 W7 29.86R ELIZABETH CITY CLOUDY 73 66 78 W9 29.85R KITTY HAWK MOSUNNY 73 66 77 W7 29.84R MANTEO MOCLDY 74 65 75 W8G16 29.86R $$ NCZ045>047-081-094-103-104-220900- CENTRAL COAST CITY SKY/WX TMP DP RH WIND PRES REMARKS FRISCO CLEAR 75 73 93 W12G22 29.86S SWANQUARTER N/A 75 N/A N/A W10 29.82S $$ NCZ095-097-098-100-101-220900- SOUTHERN COAST CITY SKY/WX TMP DP RH WIND PRES REMARKS BEAUFORT CLEAR 78 71 79 SW13 29.87F CEDAR ISLAND N/A 75 N/A N/A S14 29.91S JACKSONVILLE MOCLDY 72 65 78 SW9 29.87S NEWPORT NOT AVBL PINEY ISLAND SUNNY 77 69 76 SW9 29.86F WILMINGTON MOCLDY 74 65 73 SW9 29.89S $$ NCZ011>013-027>030-043-044-078>080-089-090>093-098-220900- COASTAL PLAIN CITY SKY/WX TMP DP RH WIND PRES REMARKS AHOSKIE CLEAR 67 65 94 CALM 29.86S CLINTON CLOUDY 72 67 84 W3 29.90R ELIZABETHTOWN CLOUDY 73 65 74 SW3 29.89S GOLDSBORO CLEAR 71 70 97 CALM 29.86R GREENVILLE PTCLDY 72 66 83 W5 29.89R HAVELOCK CLOUDY 73 66 78 SW7 29.88S KENANSVILLE CLOUDY 73 64 73 W6 29.89R KINSTON CLEAR 72 66 81 SW5 29.88R NEW BERN CLOUDY 73 65 75 SW5 29.88R RICHLANDS MOCLDY 70 63 78 SW6 29.89R ROANOKE RAPIDS NOT AVBL ROCKY MOUNT CLEAR 68 66 93 CALM 29.88R WASHINGTON MOCLDY 69 66 90 CALM 29.87R WHITEVILLE MOCLDY 73 64 74 SW6 29.90R $$ AMZ130-135-150-152-154-156-158-170-250-252-270-ANZ085-086-088-633-658-670-220900- MARINE OBSERVATIONS STATION/POSITION TIME TEMP WIND PRES WAVE SWELL AIR SEA DIR/SP/G HT/PER HT/PER (UTC) (F) (DEG/KT/KT) (MB) (FT/S) (FT/S) CHESAPEAKE LIGHT 0800 75 280/ 17/ 19 1009.9 BUOY 44014 0800 75 76 240/ 14/ 17 1009.1 6/10 5/10 DUCK 0800 74 74 250/ 14/ 18 1009.7 2E DUCK 0800 N/A 3/ 9 2/11 OREGON INLET 0800 74 76 220/ 12/ 14 1010.7 BUOY 44095 0800 74 N/A 5/ 9 2/11 20E OREGON INLET NOT AVBL HATTERAS CG NOT AVBL DIAMOND BUOY 0800 81 240/ 21/ 27 1011.0 7/ 9 3/ 9 CAPE LOOKOUT 0800 78 240/ 11/ 14 1011.7 BEAUFORT LAB 0800 78 75 240/ 6/ 12 1011.2 30 SE NEW RIVER 0800 81 82 250/ 21/ 27 1011.1 6/ 5 2/ 9 5 SE WRIGHTSVILL 0800 75 79 250/ 17/ 19 N/A BUOY 41002 0654 80 81 270/ 12/ 14 1015.3 6/ 6 5/ 6 BUOY 41004 0800 82 81 240/ 17/ 21 1013.3 4/ 5 2/ 9 $$

USA.gov is the U.S. government's official web portal to all federal, state and local government web resources and services.